Silvana, WA

6:09 AM PST on February 09, 2016 (GMT -0800)
Arlington Municipal

Weather History for KAWO - August, 2013

Change the Weather History Date:

Monday, August 19, 2013

  Actual Average Record
Temperature  
Mean Temperature 68 °F -  
Max Temperature 78 °F 70 °F - (-1)
Min Temperature 57 °F 51 °F - (-1)
Cooling Degree Days 2    
Growing Degree Days 18 (Base 50)    
Moisture  
Dew Point 52 °F    
Average Humidity 64    
Maximum Humidity 88    
Minimum Humidity 44    
Precipitation  
Precipitation 0.00 in - - ()
Sea Level Pressure  
Sea Level Pressure 30.11 in    
Wind  
Wind Speed 3 mph (WNW)    
Max Wind Speed 18 mph    
Max Gust Speed 20 mph    
Visibility 10 miles    
Events      
Averages and records for this station are not official NWS values.
T = Trace of Precipitation, MM = Missing Value Source: NWS Daily Summary

Daily Weather History Graph

Daily Weather History Graph

Search for Another Location

Airport or City:

Trip Planner

Search our weather history database for the weather conditions in past years. The results will help you decide how hot, cold, wet, or windy it might be!

Date:

Astronomy

Aug. 19, 2013 Rise Set
Actual Time 6:09 AM PDT 8:14 PM PDT
Civil Twilight 5:35 AM PDT 8:47 PM PDT
Nautical Twilight 4:53 AM PDT 9:29 PM PDT
Astronomical Twilight 4:06 AM PDT 10:16 PM PDT
Moon 7:08 PM PDT (8/19) 4:32 AM PDT (8/19)
Length of Visible Light 15h 12m
Length of Day
14h 05m
Waxing Gibbous, 98% of the Moon is Illuminated
Aug 19
Waxing Gibbous
Aug 20
Full
Aug 28
Last Quarter
Sep 5
New
Sep 12
First Quarter

Hourly Weather History & Observations

Time (PDT) Temp. Dew Point Humidity Pressure Visibility Wind Dir Wind Speed Gust Speed Precip Events Conditions
12:15 AM 62.6 °F 50.0 °F 63% 30.11 in 10.0 mi Calm Calm - N/A   Overcast
12:35 AM 60.8 °F 51.8 °F 72% 30.10 in 10.0 mi Calm Calm - N/A   Overcast
12:55 AM 60.8 °F 51.8 °F 72% 30.10 in 10.0 mi Calm Calm - N/A   Overcast
1:15 AM 60.8 °F 51.8 °F 72% 30.10 in 10.0 mi Calm Calm - N/A   Overcast
1:35 AM 60.8 °F 51.8 °F 72% 30.10 in 10.0 mi Calm Calm - N/A   Overcast
1:55 AM 60.8 °F 51.8 °F 72% 30.10 in 10.0 mi Calm Calm - N/A   Overcast
2:15 AM 60.8 °F 51.8 °F 72% 30.10 in 10.0 mi Calm Calm - N/A   Overcast
2:35 AM 60.8 °F 51.8 °F 72% 30.10 in 10.0 mi Calm Calm - N/A   Overcast
2:55 AM 60.8 °F 51.8 °F 72% 30.10 in 10.0 mi Calm Calm - N/A   Overcast
3:15 AM 60.8 °F 51.8 °F 72% 30.10 in 10.0 mi Calm Calm - N/A   Overcast
3:35 AM 59.0 °F 51.8 °F 77% 30.10 in 10.0 mi Calm Calm - N/A   Overcast
3:55 AM 57.2 °F 51.8 °F 82% 30.10 in 10.0 mi Calm Calm - N/A   Overcast
4:15 AM 59.0 °F 51.8 °F 77% 30.10 in 10.0 mi Calm Calm - N/A   Mostly Cloudy
4:35 AM 57.2 °F 51.8 °F 82% 30.10 in 10.0 mi Calm Calm - N/A   Overcast
4:55 AM 57.2 °F 51.8 °F 82% 30.10 in 10.0 mi Calm Calm - N/A   Overcast
5:15 AM 57.2 °F 51.8 °F 82% 30.10 in 10.0 mi Calm Calm - N/A   Overcast
5:35 AM 57.2 °F 53.6 °F 88% 30.11 in 10.0 mi Calm Calm - N/A   Overcast
5:55 AM 57.2 °F 53.6 °F 88% 30.11 in 10.0 mi Calm Calm - N/A   Overcast
6:15 AM 57.2 °F 53.6 °F 88% 30.11 in 10.0 mi Calm Calm - N/A   Overcast
6:35 AM 57.2 °F 53.6 °F 88% 30.11 in 10.0 mi North - - N/A   Overcast
6:55 AM 57.2 °F 53.6 °F 88% 30.11 in 10.0 mi Calm Calm - N/A   Overcast
7:15 AM 57.2 °F 53.6 °F 88% 30.11 in 10.0 mi Calm Calm - N/A   Overcast
7:35 AM 57.2 °F 53.6 °F 88% 30.11 in 10.0 mi Calm Calm - N/A   Overcast
7:55 AM 59.0 °F 53.6 °F 82% 30.11 in 10.0 mi Calm Calm - N/A   Mostly Cloudy
8:15 AM 60.8 °F 53.6 °F 77% 30.11 in 10.0 mi Calm Calm - N/A   Scattered Clouds
8:35 AM 62.6 °F 53.6 °F 72% 30.11 in 10.0 mi Calm Calm - N/A   Mostly Cloudy
8:55 AM 62.6 °F 53.6 °F 72% 30.12 in 10.0 mi Calm Calm - N/A   Scattered Clouds
9:15 AM 64.4 °F 51.8 °F 64% 30.12 in 10.0 mi Calm Calm - N/A   Partly Cloudy
9:35 AM 66.2 °F 51.8 °F 60% 30.12 in 10.0 mi Calm Calm - N/A   Scattered Clouds
9:55 AM 68.0 °F 53.6 °F 60% 30.12 in 10.0 mi Calm Calm - N/A   Mostly Cloudy
10:35 AM 69.8 °F 53.6 °F 56% 30.12 in 10.0 mi SSE 5.8 mph - N/A   Scattered Clouds
10:55 AM 71.6 °F 53.6 °F 53% 30.12 in 10.0 mi SSW 5.8 mph - N/A   Clear
11:15 AM 71.6 °F 53.6 °F 53% 30.12 in 10.0 mi Calm Calm - N/A   Clear
11:35 AM 73.4 °F 53.6 °F 50% 30.12 in 10.0 mi SSE 5.8 mph - N/A   Partly Cloudy
11:55 AM 73.4 °F 53.6 °F 50% 30.12 in 10.0 mi South 6.9 mph - N/A   Clear
12:15 PM 73.4 °F 53.6 °F 50% 30.12 in 10.0 mi Calm Calm - N/A   Clear
12:35 PM 73.4 °F 53.6 °F 50% 30.12 in 10.0 mi South 5.8 mph - N/A   Partly Cloudy
12:55 PM 73.4 °F 53.6 °F 50% 30.12 in 10.0 mi Calm Calm - N/A   Partly Cloudy
1:15 PM 73.4 °F 55.4 °F 53% 30.11 in 10.0 mi WSW 5.8 mph - N/A   Clear
1:35 PM 75.2 °F 55.4 °F 50% 30.11 in 10.0 mi Calm Calm - N/A   Partly Cloudy
1:55 PM 75.2 °F 55.4 °F 50% 30.11 in 10.0 mi SSW 8.1 mph - N/A   Scattered Clouds
2:15 PM 75.2 °F 55.4 °F 50% 30.11 in 10.0 mi Calm Calm - N/A   Partly Cloudy
2:35 PM 78.8 °F 55.4 °F 44% 30.10 in 10.0 mi SSW 8.1 mph - N/A   Scattered Clouds
2:55 PM 77.0 °F 55.4 °F 47% 30.10 in 10.0 mi SW 9.2 mph - N/A   Mostly Cloudy
3:15 PM 78.8 °F 55.4 °F 44% 30.10 in 10.0 mi SW 8.1 mph - N/A   Mostly Cloudy
3:35 PM 78.8 °F 55.4 °F 44% 30.10 in 10.0 mi WSW 8.1 mph - N/A   Scattered Clouds
3:55 PM 75.2 °F 55.4 °F 50% 30.10 in 10.0 mi NW 9.2 mph 16.1 mph N/A   Overcast
4:15 PM 77.0 °F 55.4 °F 47% 30.10 in 10.0 mi NW 11.5 mph - N/A   Overcast
4:35 PM 75.2 °F 55.4 °F 50% 30.10 in 10.0 mi WNW 9.2 mph - N/A   Overcast
4:55 PM 73.4 °F 55.4 °F 53% 30.10 in 10.0 mi WNW 18.4 mph - N/A   Mostly Cloudy
5:15 PM 73.4 °F 55.4 °F 53% 30.10 in 10.0 mi NW 15.0 mph 19.6 mph N/A   Mostly Cloudy
5:35 PM 73.4 °F 53.6 °F 50% 30.10 in 10.0 mi NW 13.8 mph - N/A   Mostly Cloudy
5:55 PM 71.6 °F 55.4 °F 57% 30.10 in 10.0 mi NW 16.1 mph - N/A   Scattered Clouds
6:15 PM 69.8 °F 53.6 °F 56% 30.10 in 10.0 mi NW 15.0 mph - N/A   Partly Cloudy
6:35 PM 69.8 °F 51.8 °F 53% 30.10 in 10.0 mi WNW 16.1 mph - N/A   Clear
6:55 PM 69.8 °F 48.2 °F 46% 30.10 in 10.0 mi NW 15.0 mph 19.6 mph N/A   Clear
7:15 PM 68.0 °F 48.2 °F 49% 30.10 in 10.0 mi NW 11.5 mph 16.1 mph N/A   Mostly Cloudy
7:35 PM 66.2 °F 46.4 °F 49% 30.10 in 10.0 mi NW 12.7 mph 19.6 mph N/A   Overcast
7:55 PM 64.4 °F 46.4 °F 52% 30.11 in 10.0 mi NW 13.8 mph - N/A   Overcast
8:15 PM 62.6 °F 46.4 °F 55% 30.12 in 10.0 mi NW 11.5 mph - N/A   Mostly Cloudy
8:35 PM 60.8 °F 48.2 °F 63% 30.12 in 10.0 mi NW 9.2 mph - N/A   Mostly Cloudy
8:55 PM 60.8 °F 48.2 °F 63% 30.13 in 10.0 mi NNW 5.8 mph - N/A   Mostly Cloudy
9:15 PM 59.0 °F 48.2 °F 67% 30.13 in 10.0 mi NNW 3.5 mph - N/A   Partly Cloudy
9:35 PM 59.0 °F 48.2 °F 67% 30.14 in 10.0 mi NNW 4.6 mph - N/A   Mostly Cloudy
9:55 PM 59.0 °F 48.2 °F 67% 30.14 in 10.0 mi Calm Calm - N/A   Mostly Cloudy
10:15 PM 57.2 °F 48.2 °F 72% 30.14 in 10.0 mi North - - N/A   Mostly Cloudy
10:35 PM 59.0 °F 46.4 °F 63% 30.14 in 10.0 mi North 4.6 mph - N/A   Overcast
10:55 PM 59.0 °F 46.4 °F 63% 30.14 in 10.0 mi NNE 5.8 mph - N/A   Overcast
11:15 PM 59.0 °F 48.2 °F 67% 30.15 in 10.0 mi North 6.9 mph - N/A   Overcast
11:35 PM 59.0 °F 48.2 °F 67% 30.15 in 10.0 mi North 5.8 mph - N/A   Overcast
11:55 PM 57.2 °F 48.2 °F 72% 30.15 in 10.0 mi North 6.9 mph - N/A   Mostly Cloudy